• In Switzerland
  • List of Countries
  • For 7 days
  • Water Temperature
  • Satellite Maps
  • Weather Map
  • Weather Widgets
  • user-avatar
    Login

    Hourly Weather Kunest

    Today, 22 October, Monday

    Time Temperature Precipitation Wind Pressure Humidity
    00:00 +5°C° 0 mm 6 mps 760 mmHg 82%
    01:00 +5°C° 0 mm 6 mps 760 mmHg 83%
    02:00 +6°C° 0 mm 8 mps 759 mmHg 83%
    03:00 +6°C° 0 mm 8 mps 758 mmHg 84%
    04:00 +7°C° 0 mm 8 mps 757 mmHg 85%
    05:00 +7°C° 0 mm 8 mps 756 mmHg 86%
    06:00 +7°C° 0.1 mm 8 mps 756 mmHg 85%
    07:00 +9°C° 0.1 mm 8 mps 755 mmHg 85%
    08:00 +9°C° 0.1 mm 8 mps 755 mmHg 85%
    09:00 +9°C° 0.3 mm 8 mps 755 mmHg 85%
    10:00 +9°C° 0.3 mm 7 mps 754 mmHg 86%
    11:00 +10°C° 0.3 mm 7 mps 754 mmHg 86%
    12:00 +10°C° 0.6 mm 7 mps 753 mmHg 86%
    13:00 +10°C° 0.6 mm 6 mps 753 mmHg 86%
    14:00 +10°C° 0.6 mm 6 mps 753 mmHg 86%
    15:00 +10°C° 0.2 mm 6 mps 753 mmHg 85%
    16:00 +9°C° 0.2 mm 6 mps 752 mmHg 84%
    17:00 +9°C° 0.2 mm 6 mps 752 mmHg 83%
    18:00 +8°C° 0 mm 6 mps 752 mmHg 82%
    19:00 +7°C° 0 mm 6 mps 752 mmHg 80%
    20:00 +7°C° 0 mm 6 mps 752 mmHg 79%
    21:00 +5°C° 0 mm 6 mps 752 mmHg 77%
    22:00 +5°C° 0 mm 6 mps 752 mmHg 76%
    23:00 +5°C° 0 mm 5 mps 752 mmHg 75%

    Tomorrow, 23 October, Tuesday

    Time Temperature Precipitation Wind Pressure Humidity
    00:00 +5°C° 0 mm 5 mps 752 mmHg 75%
    01:00 +5°C° 0 mm 5 mps 752 mmHg 74%
    02:00 +5°C° 0 mm 5 mps 752 mmHg 74%
    03:00 +3°C° 0 mm 5 mps 752 mmHg 75%
    04:00 +4°C° 0 mm 4 mps 751 mmHg 76%
    05:00 +4°C° 0 mm 4 mps 751 mmHg 77%
    06:00 +4°C° 0 mm 4 mps 750 mmHg 78%
    07:00 +4°C° 0 mm 4 mps 750 mmHg 79%
    08:00 +4°C° 0 mm 4 mps 750 mmHg 79%
    09:00 +5°C° 0.1 mm 4 mps 749 mmHg 76%
    10:00 +6°C° 0.1 mm 4 mps 748 mmHg 73%
    11:00 +7°C° 0.1 mm 4 mps 748 mmHg 70%
    12:00 +7°C° 0.1 mm 4 mps 747 mmHg 70%
    13:00 +7°C° 0.1 mm 5 mps 746 mmHg 70%
    14:00 +7°C° 0.1 mm 5 mps 745 mmHg 70%
    15:00 +6°C° 0 mm 5 mps 744 mmHg 73%
    16:00 +5°C° 0 mm 5 mps 742 mmHg 77%
    17:00 +5°C° 0 mm 5 mps 741 mmHg 80%
    18:00 +5°C° 0 mm 5 mps 740 mmHg 81%
    19:00 +5°C° 0 mm 5 mps 739 mmHg 81%
    20:00 +4°C° 0 mm 6 mps 738 mmHg 82%
    21:00 +4°C° 0 mm 6 mps 737 mmHg 82%
    22:00 +4°C° 0 mm 6 mps 736 mmHg 82%
    23:00 +3°C° 0 mm 6 mps 735 mmHg 83%

    Day after tomorrow, 24 October, Wednesday

    Time Temperature Precipitation Wind Pressure Humidity
    00:00 +3°C° 0.5 mm 6 mps 735 mmHg 83%
    01:00 +3°C° 0.5 mm 6 mps 734 mmHg 84%
    02:00 +3°C° 0.5 mm 6 mps 734 mmHg 84%
    03:00 +3°C° 0.7 mm 6 mps 733 mmHg 84%
    04:00 +3°C° 0.7 mm 6 mps 733 mmHg 84%
    05:00 +3°C° 0.7 mm 6 mps 733 mmHg 84%
    06:00 +3°C° 0.4 mm 6 mps 733 mmHg 84%
    07:00 +3°C° 0.4 mm 6 mps 734 mmHg 84%
    08:00 +3°C° 0.4 mm 6 mps 734 mmHg 83%
    09:00 +3°C° 0.1 mm 6 mps 735 mmHg 82%
    10:00 +3°C° 0.1 mm 6 mps 736 mmHg 82%
    11:00 +3°C° 0.1 mm 5 mps 737 mmHg 81%
    12:00 +3°C° 0.1 mm 5 mps 738 mmHg 79%
    13:00 +5°C° 0.1 mm 5 mps 739 mmHg 78%
    14:00 +5°C° 0.1 mm 5 mps 739 mmHg 77%
    15:00 +5°C° 0 mm 4 mps 740 mmHg 78%
    16:00 +4°C° 0 mm 4 mps 741 mmHg 80%
    17:00 +4°C° 0 mm 3 mps 742 mmHg 82%
    18:00 +3°C° 0 mm 3 mps 742 mmHg 84%
    19:00 +4°C° 0 mm 2 mps 743 mmHg 87%
    20:00 +3°C° 0 mm 2 mps 744 mmHg 89%
    21:00 +3°C° 0.1 mm 2 mps 744 mmHg 89%
    22:00 +3°C° 0.1 mm 2 mps 744 mmHg 89%
    23:00 +4°C° 0.1 mm 1 mps 744 mmHg 90%

    25 October, Thursday

    Time Temperature Precipitation Wind Pressure Humidity
    00:00 +3°C° 0.1 mm 2 mps 744 mmHg 90%
    01:00 +3°C° 0.1 mm 2 mps 744 mmHg 90%
    02:00 +3°C° 0.1 mm 2 mps 744 mmHg 89%
    03:00 +3°C° 0 mm 2 mps 744 mmHg 90%
    04:00 +3°C° 0 mm 2 mps 744 mmHg 90%
    05:00 +2°C° 0 mm 3 mps 743 mmHg 90%
    06:00 +3°C° 0 mm 2 mps 743 mmHg 90%
    07:00 +3°C° 0 mm 2 mps 743 mmHg 91%
    08:00 +2°C° 0 mm 2 mps 743 mmHg 92%
    09:00 +4°C° 0 mm 2 mps 743 mmHg 87%
    10:00 +5°C° 0 mm 2 mps 743 mmHg 83%
    11:00 +6°C° 0 mm 2 mps 743 mmHg 78%
    12:00 +6°C° 0.2 mm 2 mps 742 mmHg 76%
    13:00 +7°C° 0.2 mm 2 mps 742 mmHg 73%
    14:00 +7°C° 0.2 mm 2 mps 742 mmHg 71%
    15:00 +6°C° 0.1 mm 2 mps 742 mmHg 75%
    16:00 +5°C° 0.1 mm 2 mps 742 mmHg 80%
    17:00 +3°C° 0.1 mm 3 mps 743 mmHg 84%
    18:00 +3°C° 0.1 mm 3 mps 743 mmHg 85%
    19:00 +3°C° 0.1 mm 3 mps 743 mmHg 87%
    20:00 +2°C° 0.1 mm 3 mps 743 mmHg 88%
    21:00 +2°C° 0.2 mm 3 mps 743 mmHg 88%
    22:00 +2°C° 0.2 mm 3 mps 743 mmHg 88%
    23:00 +2°C° 0.2 mm 3 mps 743 mmHg 89%

    26 October, Friday

    Time Temperature Precipitation Wind Pressure Humidity
    00:00 +2°C° 0.2 mm 3 mps 744 mmHg 89%
    01:00 +2°C° 0.2 mm 3 mps 744 mmHg 89%
    02:00 +1°C° 0.2 mm 4 mps 744 mmHg 89%
    03:00 +1°C° 0.1 mm 4 mps 744 mmHg 89%
    04:00 +1°C° 0.1 mm 4 mps 744 mmHg 88%
    05:00 +1°C° 0.1 mm 4 mps 744 mmHg 88%
    06:00 +1°C° 0 mm 5 mps 745 mmHg 86%
    07:00 +1°C° 0 mm 5 mps 745 mmHg 84%
    08:00 +1°C° 0 mm 5 mps 745 mmHg 81%
    09:00 +1°C° 0 mm 5 mps 745 mmHg 78%
    10:00 +2°C° 0 mm 5 mps 746 mmHg 74%
    11:00 +2°C° 0 mm 5 mps 746 mmHg 70%
    12:00 +2°C° 0 mm 5 mps 746 mmHg 70%
    13:00 +2°C° 0 mm 5 mps 747 mmHg 70%
    14:00 +2°C° 0 mm 5 mps 747 mmHg 70%
    15:00 +2°C° 0 mm 5 mps 747 mmHg 71%
    16:00 +3°C° 0 mm 4 mps 748 mmHg 73%
    17:00 +1°C° 0 mm 4 mps 748 mmHg 74%
    18:00 +2°C° 0 mm 3 mps 748 mmHg 76%
    19:00 +1°C° 0 mm 3 mps 748 mmHg 78%
    20:00 +2°C° 0 mm 2 mps 749 mmHg 79%
    21:00 +2°C° 0 mm 2 mps 749 mmHg 81%
    22:00 +2°C° 0 mm 2 mps 749 mmHg 83%
    23:00 +1°C° 0 mm 2 mps 749 mmHg 84%

    27 October, Saturday

    Time Temperature Precipitation Wind Pressure Humidity
    00:00 +2°C° 0.1 mm 2 mps 749 mmHg 85%
    01:00 +1°C° 0.1 mm 3 mps 748 mmHg 85%
    02:00 +1°C° 0.1 mm 3 mps 748 mmHg 86%
    03:00 0°C° 0.9 mm 4 mps 747 mmHg 86%
    04:00 +1°C° 0.9 mm 4 mps 747 mmHg 86%
    05:00 +1°C° 0.9 mm 5 mps 746 mmHg 86%
    06:00 +1°C° 1.3 mm 5 mps 745 mmHg 87%
    07:00 +1°C° 1.3 mm 5 mps 745 mmHg 88%
    08:00 +1°C° 1.3 mm 6 mps 744 mmHg 89%
    09:00 +2°C° 1.1 mm 5 mps 744 mmHg 90%
    10:00 +3°C° 1.1 mm 5 mps 744 mmHg 91%
    11:00 +3°C° 1.1 mm 5 mps 744 mmHg 92%
    12:00 +5°C° 0.5 mm 5 mps 744 mmHg 89%
    13:00 +6°C° 0.5 mm 4 mps 744 mmHg 87%
    14:00 +7°C° 0.5 mm 4 mps 744 mmHg 84%
    15:00 +6°C° 0 mm 4 mps 745 mmHg 85%
    16:00 +5°C° 0 mm 4 mps 745 mmHg 86%
    17:00 +4°C° 0 mm 4 mps 746 mmHg 86%
    18:00 +4°C° 0 mm 3 mps 746 mmHg 87%
    19:00 +4°C° 0 mm 3 mps 747 mmHg 87%
    20:00 +3°C° 0 mm 3 mps 747 mmHg 87%
    21:00 +3°C° 0 mm 3 mps 748 mmHg 88%
    22:00 +4°C° 0 mm 2 mps 748 mmHg 89%
    23:00 +4°C° 0 mm 2 mps 749 mmHg 89%

    28 October, Sunday

    Time Temperature Precipitation Wind Pressure Humidity
    00:00 +4°C° 0 mm 2 mps 749 mmHg 90%
    01:00 +5°C° 0 mm 1 mps 749 mmHg 90%
    02:00 +5°C° 0 mm 1 mps 750 mmHg 91%
    03:00 +5°C° 0 mm 1 mps 750 mmHg 91%
    04:00 +5°C° 0 mm 1 mps 750 mmHg 91%
    05:00 +4°C° 0 mm 2 mps 749 mmHg 90%
    06:00 +4°C° 0.1 mm 2 mps 749 mmHg 90%
    07:00 +4°C° 0.1 mm 2 mps 749 mmHg 90%
    08:00 +3°C° 0.1 mm 3 mps 749 mmHg 89%
    09:00 +4°C° 0.3 mm 4 mps 749 mmHg 88%
    10:00 +4°C° 0.3 mm 4 mps 748 mmHg 87%
    11:00 +3°C° 0.3 mm 5 mps 748 mmHg 86%
    12:00 +3°C° 1.5 mm 6 mps 747 mmHg 85%
    13:00 +3°C° 1.5 mm 6 mps 747 mmHg 85%
    14:00 +3°C° 1.5 mm 7 mps 746 mmHg 84%
    15:00 +2°C° 1.9 mm 7 mps 745 mmHg 85%
    16:00 +2°C° 1.9 mm 7 mps 745 mmHg 86%
    17:00 +1°C° 1.9 mm 8 mps 744 mmHg 86%
    18:00 +2°C° 2.2 mm 7 mps 744 mmHg 87%
    19:00 +2°C° 2.2 mm 7 mps 744 mmHg 87%
    20:00 +2°C° 2.2 mm 7 mps 745 mmHg 87%
    21:00 0°C° 0.5 mm 7 mps 746 mmHg 87%
    22:00 +1°C° 0.5 mm 6 mps 747 mmHg 86%
    23:00 +1°C° 0.5 mm 6 mps 748 mmHg 86%
    Show more